FW7820 Weather Reports


Display with metric or nautical units.
time (UTC)temp
F
wind
direction
speed
MPH
gust
MPH
rain 1hr
in
rain 24hr
in
rain mn
in
humidity
%
barometer
mb
20260502152311 64 326 4.0 6.0 0.00 0.37 0.37 72 1016.6
20260502151808 63 330 6.0 7.0 0.00 0.37 0.37 75 1016.7
20260502151305 63 58 1.0 2.0 0.00 0.37 0.37 78 1016.5
20260502150803 63 42 3.0 3.0 0.00 0.37 0.37 78 1016.3
20260502150259 62 22 2.0 3.0 0.00 0.37 0.37 78 1016.3
20260502130647 55 26 2.0 2.0 0.00 0.37 0.37 99 1015.1
20260502130145 55 355 1.0 2.0 0.00 0.37 0.37 99 1015.4
20260502123630 54 359 1.0 1.0 0.00 0.37 0.37 99 1015.2
20260502123127 54 62 0.0 1.0 0.00 0.37 0.37 99 1015.3
20260502122624 53 27 1.0 1.0 0.00 0.37 0.37 99 1015.0
20260502122120 53 332 1.0 2.0 0.00 0.37 0.37 99 1014.9
20260502121619 53 337 2.0 2.0 0.00 0.37 0.37 99 1014.7
20260502121116 53 359 2.0 2.0 0.00 0.37 0.37 99 1014.9
20260502120611 53 3 2.0 2.0 0.00 0.37 0.37 99 1014.9
20260502120109 53 357 3.0 3.0 0.00 0.37 0.37 99 1014.6
20260502115607 53 346 2.0 2.0 0.00 0.37 0.37 99 1014.5
20260502115102 53 0 1.0 1.0 0.00 0.37 0.37 99 1014.3
20260502114559 53 347 3.0 3.0 0.00 0.37 0.37 99 1014.0
20260502114056 53 32 0.0 1.0 0.00 0.37 0.37 99 1014.0
20260502113553 53 358 3.0 3.0 0.00 0.37 0.37 99 1014.3
20260502113052 53 357 0.0 1.0 0.00 0.37 0.37 99 1014.0
20260502112549 52 19 0.0 0.0 0.00 0.37 0.37 99 1014.0
20260502112047 52 334 1.0 1.0 0.00 0.37 0.37 99 1013.8
20260502111544 52 13 0.0 0.0 0.00 0.37 0.37 99 1013.9
20260502111041 52 350 1.0 1.0 0.00 0.37 0.37 99 1013.5
20260502110538 52 334 1.0 1.0 0.00 0.37 0.37 99 1013.4
20260502110036 52 12 0.0 1.0 0.00 0.37 0.37 99 1013.5
20260502105533 52 6 1.0 1.0 0.00 0.37 0.37 99 1013.4
20260502105031 52 58 0.0 0.0 0.00 0.37 0.37 99 1013.4
20260502104527 52 49 0.0 0.0 0.00 0.37 0.37 99 1013.6
20260502104025 52 49 0.0 0.0 0.00 0.37 0.37 99 1013.8
20260502103523 52 37 0.0 0.0 0.00 0.37 0.37 99 1013.8
20260502103021 52 66 0.0 0.0 0.00 0.37 0.37 99 1013.6
20260502102517 52 65 0.0 0.0 0.00 0.37 0.37 99 1013.5
20260502102014 52 43 0.0 0.0 0.00 0.37 0.37 99 1013.3
20260502101512 52 59 0.0 0.0 0.00 0.37 0.37 99 1013.4
20260502101010 52 52 0.0 0.0 0.00 0.37 0.37 99 1013.2
20260502100508 52 0 0.0 1.0 0.07 0.37 0.37 99 1013.3
20260502091442 52 354 2.0 2.0 0.19 0.31 0.31 99 1013.4
20260502090940 52 26 2.0 2.0 0.17 0.30 0.30 99 1012.9
20260502090437 52 112 2.0 3.0 0.19 0.28 0.28 99 1013.5
20260502071331 52 12 2.0 2.0 0.24 0.08 0.08 99 1014.6
20260502070829 52 1 1.0 1.0 0.17 0.06 0.06 99 1014.3
20260502070326 52 9 4.0 5.0 0.17 0.04 0.04 99 1013.6
20260502065825 52 340 4.0 5.0 0.12 0.03 0.03 99 1013.9
20260502065323 52 50 0.0 1.0 0.00 0.01 0.01 99 1014.4
20260502064821 52 359 1.0 2.0 0.00 0.01 0.01 99 1014.3
20260502064319 52 74 2.0 2.0 0.00 0.01 0.01 99 1014.0
20260502063816 51 355 3.0 3.0 0.00 0.01 0.01 99 1013.9
20260502063314 51 10 1.0 2.0 0.07 0.01 0.01 99 1013.9
20260502062810 51 48 1.0 2.0 0.07 0.01 0.01 99 1013.8
20260502062308 51 346 2.0 2.0 0.00 0.00 0.00 99 1014.0
20260502061806 51 11 1.0 1.0 0.00 0.00 0.00 99 1013.6
20260502061304 51 11 3.0 3.0 0.00 0.00 0.00 99 1014.1
20260502060759 51 336 4.0 5.0 0.00 0.00 0.00 99 1014.1
20260502060255 51 339 2.0 3.0 0.00 0.00 0.00 99 1014.2
20260502055753 51 318 3.0 5.0 0.00 0.00 0.00 99 1013.9
20260502055250 51 316 0.0 1.0 0.00 0.00 0.00 99 1014.1
20260502054749 51 25 0.0 1.0 0.00 0.00 0.00 99 1014.1
20260502054246 51 353 2.0 2.0 0.00 0.00 0.00 99 1014.0
20260502053744 51 97 0.0 1.0 0.00 0.00 0.00 99 1013.7
20260502053241 51 73 1.0 1.0 0.00 0.00 0.00 99 1013.5
20260502052739 51 326 5.0 6.0 0.00 0.00 0.00 99 1013.9
20260502052237 51 40 2.0 3.0 0.00 0.00 0.00 99 1013.8
20260502051735 51 36 1.0 1.0 0.00 0.00 0.00 99 1013.8
20260502051233 51 20 0.0 1.0 0.00 0.00 0.00 99 1013.6
20260502050729 51 30 1.0 2.0 0.00 0.00 0.00 99 1013.5
20260502050225 51 338 4.0 6.0 0.00 0.00 0.00 99 1013.8
20260502045722 51 335 5.0 6.0 0.00 1.16 1.16 99 1013.9
20260502045219 51 308 4.0 6.0 0.00 1.16 1.16 99 1014.0
20260502044716 51 3 2.0 3.0 0.00 1.16 1.16 99 1013.8
20260502044212 51 127 3.0 3.0 0.07 1.16 1.16 99 1013.6
20260502043710 51 351 5.0 6.0 0.07 1.16 1.16 99 1013.7
20260502043207 51 345 2.0 2.0 0.00 1.15 1.15 99 1013.8
20260502042706 51 9 3.0 3.0 0.00 1.15 1.15 99 1013.6
20260502042204 51 359 1.0 1.0 0.00 1.15 1.15 99 1013.3
20260502041701 51 2 3.0 3.0 0.00 1.15 1.15 99 1013.3
20260502041158 51 359 3.0 3.0 0.00 1.15 1.15 99 1013.3
20260502040655 51 56 3.0 5.0 0.00 1.15 1.15 99 1013.8
20260502040152 51 349 5.0 7.0 0.00 1.15 1.15 99 1014.1
20260502035648 51 341 3.0 3.0 0.05 1.15 1.15 99 1014.0
20260502035145 51 337 4.0 5.0 0.05 1.15 1.15 99 1014.1
20260502034643 51 351 2.0 2.0 0.07 1.14 1.14 99 1014.3
20260502034142 51 5 6.0 7.0 0.07 1.14 1.14 99 1014.5
20260502033639 51 47 1.0 1.0 0.05 1.13 1.13 99 1014.6
20260502033137 51 25 1.0 1.0 0.05 1.13 1.13 99 1015.0
20260502032632 51 24 0.0 0.0 0.00 1.12 1.12 99 1015.2
20260502032129 51 78 1.0 1.0 0.07 1.12 1.12 99 1015.1
20260502031627 51 356 2.0 2.0 0.07 1.12 1.12 99 1015.0
20260502031124 51 61 1.0 2.0 0.00 1.11 1.11 99 1015.2
20260502030623 51 4 3.0 3.0 0.05 1.11 1.11 99 1015.0
20260502030121 51 348 2.0 2.0 0.12 1.11 1.11 99 1014.7
20260502025618 51 348 3.0 5.0 0.07 1.10 1.10 99 1014.5
20260502025116 51 29 1.0 2.0 0.05 1.09 1.09 99 1014.3
20260502024613 51 347 1.0 1.0 0.05 1.09 1.09 99 1014.5
20260502024111 51 2 3.0 3.0 0.00 1.08 1.08 99 1014.3
20260502023609 51 350 2.0 2.0 0.00 1.08 1.08 99 1014.0
20260502023106 51 0 1.0 2.0 0.07 1.08 1.08 99 1014.0
20260502022603 51 12 0.0 1.0 0.07 1.08 1.08 99 1013.7
20260502022100 51 39 1.0 2.0 0.00 1.07 1.07 99 1013.3
20260502021557 51 54 2.0 5.0 0.00 1.07 1.07 99 1013.4
20260502021054 51 342 3.0 3.0 0.00 1.07 1.07 99 1013.4
20260502020551 50 14 2.0 2.0 0.00 1.07 1.07 99 1013.7
20260502020048 50 50 0.0 1.0 0.00 1.07 1.07 99 1013.8
20260502015546 50 33 0.0 0.0 0.00 1.07 1.07 99 1013.8
20260502015042 50 34 1.0 2.0 0.00 1.07 1.07 99 1013.3
20260502014539 50 25 1.0 2.0 0.05 1.07 1.07 99 1013.3
20260502014037 50 64 2.0 2.0 0.12 1.07 1.07 99 1013.5
20260502013532 51 353 2.0 2.0 0.14 1.06 1.06 99 1013.3
20260502013028 51 343 1.0 1.0 0.19 1.05 1.05 99 1013.5
20260502012526 50 10 1.0 1.0 0.17 1.04 1.04 99 1013.8
20260502012023 50 59 0.0 0.0 0.12 1.02 1.02 99 1013.7
20260502011520 50 91 1.0 2.0 0.07 1.01 1.01 99 1013.3
20260502011016 50 55 0.0 1.0 0.00 1.00 1.00 99 1012.9
20260502010514 50 75 3.0 3.0 0.00 1.00 1.00 99 1012.5
20260502010010 50 14 5.0 6.0 0.05 1.00 1.00 99 1011.8
20260502005508 51 353 3.0 5.0 0.05 1.00 1.00 99 1012.1
20260502005005 51 69 3.0 5.0 0.00 0.99 0.99 99 1012.0
20260502004501 51 345 1.0 2.0 0.00 0.99 0.99 99 1012.2
20260502003958 51 18 2.0 2.0 0.07 0.99 0.99 99 1012.2
20260502003455 51 28 1.0 2.0 0.07 0.99 0.99 99 1011.8
20260502002951 51 342 3.0 3.0 0.05 0.98 0.98 99 1011.8
20260502002449 51 84 3.0 6.0 0.12 0.98 0.98 99 1012.2
20260502001946 51 35 0.0 1.0 0.12 0.97 0.97 99 1013.0
20260502001443 51 9 1.0 2.0 0.12 0.96 0.96 99 1013.0
20260502000941 51 15 0.0 1.0 0.07 0.95 0.95 99 1012.8
20260502000440 51 344 4.0 6.0 0.05 0.94 0.94 99 1012.7
20260501235935 51 354 2.0 2.0 0.12 0.94 0.94 99 1012.9
20260501235431 51 34 2.0 2.0 0.14 0.93 0.93 99 1012.7
20260501234926 51 72 2.0 3.0 0.12 0.92 0.92 99 1012.7
20260501234423 51 27 1.0 2.0 0.05 0.91 0.91 99 1012.8
20260501233922 51 354 4.0 6.0 0.07 0.90 0.90 99 1012.5
20260501233419 51 335 1.0 2.0 0.07 0.90 0.90 99 1012.7
20260501232914 51 48 1.0 2.0 0.05 0.89 0.89 99 1012.7
20260501232412 51 87 3.0 3.0 0.12 0.89 0.89 99 1012.8
20260501231909 51 52 1.0 2.0 0.12 0.88 0.88 99 1012.6
20260501231408 51 41 1.0 1.0 0.05 0.87 0.87 99 1013.0
20260501230905 51 66 0.0 0.0 0.07 0.86 0.86 99 1013.0
20260501230404 51 55 3.0 3.0 0.12 0.86 0.86 99 1012.9
20260501225901 51 106 2.0 2.0 0.05 0.85 0.85 99 1012.8
20260501225359 51 339 3.0 3.0 0.07 0.84 0.84 99 1013.1
20260501224854 51 60 5.0 7.0 0.07 0.84 0.84 99 1012.9
20260501224352 51 346 1.0 5.0 0.05 0.83 0.83 99 1013.5
20260501223848 51 350 3.0 3.0 0.12 0.83 0.83 99 1013.5
20260501223344 51 337 1.0 1.0 0.12 0.82 0.82 99 1013.0
20260501222840 51 316 3.0 5.0 0.19 0.81 0.81 99 1012.8
20260501222338 51 345 3.0 3.0 0.19 0.80 0.80 99 1012.8
20260501221834 51 336 1.0 2.0 0.17 0.78 0.78 99 1012.8
20260501221332 51 345 3.0 5.0 0.24 0.77 0.77 99 1012.9
20260501220830 51 274 3.0 5.0 0.19 0.75 0.75 99 1012.8
20260501220327 51 76 2.0 5.0 0.19 0.73 0.73 99 1012.7
20260501215823 51 331 4.0 5.0 0.17 0.72 0.72 99 1012.4
20260501215319 51 24 2.0 2.0 0.05 0.70 0.70 99 1012.7
20260501214815 51 313 2.0 3.0 0.07 0.69 0.69 99 1012.7
20260501214310 51 308 3.0 5.0 0.12 0.69 0.69 99 1012.7
20260501213807 51 356 2.0 5.0 0.12 0.68 0.68 99 1012.8
20260501213303 51 46 4.0 5.0 0.14 0.67 0.67 99 1012.9
20260501212759 51 342 4.0 5.0 0.24 0.66 0.66 99 1012.9
20260501212255 51 0 2.0 2.0 0.28 0.65 0.65 99 1013.0
20260501211753 51 324 3.0 5.0 0.24 0.62 0.62 99 1012.8
20260501211250 52 76 1.0 2.0 0.38 0.60 0.60 99 1012.9
20260501210747 52 221 2.0 3.0 0.42 0.58 0.58 99 1012.9
20260501210244 52 10 5.0 6.0 0.28 0.54 0.54 99 1012.8
20260501205740 52 14 6.0 10.0 0.24 0.51 0.51 99 1013.0
20260501205237 53 12 5.0 7.0 0.24 0.49 0.49 99 1013.1
20260501204734 54 27 2.0 2.0 0.24 0.47 0.47 99 1013.3
20260501204231 54 340 1.0 2.0 0.19 0.45 0.45 99 1013.4
20260501203727 54 328 3.0 5.0 0.07 0.43 0.43 99 1013.2
20260501203225 54 324 5.0 6.0 0.12 0.42 0.42 99 1012.8
20260501202721 54 2 5.0 7.0 0.19 0.42 0.42 99 1012.6
20260501202218 54 40 2.0 3.0 0.24 0.40 0.40 99 1012.7
20260501201715 54 349 4.0 5.0 0.47 0.39 0.39 99 1013.1
20260501201211 54 350 1.0 1.0 0.54 0.36 0.36 99 1012.9
20260501200708 55 35 2.0 2.0 0.47 0.31 0.31 99 1012.8
20260501200206 55 13 2.0 3.0 0.24 0.27 0.27 99 1014.1
20260501195703 55 321 2.0 2.0 0.00 0.23 0.23 98 1013.8
20260501195159 55 312 5.0 7.0 0.07 0.23 0.23 98 1012.6
20260501194655 56 37 5.0 6.0 0.12 0.23 0.23 98 1012.5
20260501194150 56 323 4.0 5.0 0.05 0.22 0.22 97 1012.4
20260501193648 57 343 4.0 5.0 0.07 0.21 0.21 96 1012.9
20260501193146 57 349 5.0 6.0 0.07 0.21 0.21 95 1012.9
20260501192643 57 341 7.0 9.0 0.00 0.20 0.20 94 1012.8
20260501192140 58 36 5.0 8.0 0.00 0.20 0.20 95 1012.9
20260501191638 59 356 3.0 5.0 0.00 0.20 0.20 96 1012.6
20260501191135 59 349 6.0 7.0 0.00 0.20 0.20 96 1012.5
20260501190631 59 17 1.0 2.0 0.00 0.20 0.20 97 1012.7
20260501190126 59 346 5.0 7.0 0.00 0.20 0.20 97 1013.1
20260501185623 59 1 2.0 3.0 0.00 0.20 0.20 97 1013.0
20260501185118 59 18 3.0 5.0 0.00 0.20 0.20 97 1012.9
20260501184615 59 353 4.0 6.0 0.00 0.20 0.20 97 1013.2
20260501184109 59 335 3.0 5.0 0.00 0.20 0.20 97 1013.1
20260501183607 59 324 2.0 2.0 0.00 0.20 0.20 98 1013.2
20260501183103 59 351 4.0 5.0 0.00 0.20 0.20 98 1013.3
20260501182600 59 14 5.0 6.0 0.00 0.20 0.20 98 1013.5
20260501182057 59 358 2.0 2.0 0.00 0.20 0.20 98 1013.4
20260501181554 59 348 3.0 5.0 0.00 0.20 0.20 98 1013.5
20260501181051 59 88 1.0 2.0 0.00 0.20 0.20 98 1013.6
20260501180549 59 19 1.0 2.0 0.00 0.20 0.20 98 1013.7
20260501180044 59 35 6.0 7.0 0.00 0.20 0.20 99 1013.6
20260501175541 59 350 3.0 5.0 0.00 0.20 0.20 99 1013.7
20260501175038 59 351 5.0 6.0 0.00 0.20 0.20 99 1013.8
20260501174535 59 28 2.0 3.0 0.00 0.20 0.20 99 1014.0
20260501174033 59 8 2.0 3.0 0.00 0.20 0.20 99 1014.2
20260501173530 59 343 3.0 3.0 0.00 0.20 0.20 99 1014.2
20260501173026 59 343 3.0 5.0 0.00 0.20 0.20 99 1014.4
20260501172522 59 15 3.0 3.0 0.00 0.20 0.20 99 1014.3
20260501172018 59 109 1.0 2.0 0.00 0.20 0.20 99 1014.2
20260501171514 59 290 2.0 2.0 0.00 0.20 0.20 99 1014.1
20260501171011 59 0 3.0 5.0 0.00 0.20 0.20 99 1014.1
20260501170507 59 1 5.0 6.0 0.00 0.20 0.20 99 1014.0
20260501170005 59 12 2.0 3.0 0.00 0.20 0.20 99 1014.7
20260501165503 59 32 4.0 6.0 0.05 0.20 0.20 99 1014.9
20260501165000 59 17 2.0 2.0 0.05 0.20 0.20 99 1014.9
20260501164458 59 335 4.0 5.0 0.00 0.19 0.19 99 1014.9
20260501163954 60 94 2.0 2.0 0.07 0.19 0.19 99 1015.1
20260501163450 60 340 2.0 2.0 0.12 0.19 0.19 99 1015.3
20260501162947 60 0 4.0 5.0 0.12 0.18 0.18 99 1015.3
20260501162443 60 49 0.0 1.0 0.07 0.17 0.17 99 1015.3
20260501161941 60 351 1.0 2.0 0.07 0.16 0.16 99 1015.4
20260501161437 60 62 4.0 5.0 0.07 0.16 0.16 99 1015.2
20260501160934 60 81 0.0 1.0 0.00 0.15 0.15 99 1015.0
20260501160431 60 39 3.0 3.0 0.00 0.15 0.15 99 1015.0
20260501155928 60 339 4.0 6.0 0.00 0.15 0.15 99 1014.5
20260501155425 60 340 3.0 5.0 0.00 0.15 0.15 99 1014.5
20260501154922 59 86 3.0 5.0 0.00 0.15 0.15 99 1015.1
20260501154420 59 349 2.0 3.0 0.00 0.15 0.15 99 1014.8
20260501153916 59 55 1.0 1.0 0.00 0.15 0.15 99 1014.8
20260501153414 59 356 5.0 6.0 0.00 0.15 0.15 99 1014.5
20260501152909 59 335 7.0 8.0 0.00 0.15 0.15 99 1014.4